Regional Weather Roundup
Issued by NWS

Current Version | Previous Version | Text Only | Print | Product List | Glossary On
Versions: 1 2 3 4 5 6 7 8 9 10 11 12 13 14 15 16 17 18 19 20 21 22 23 24 25 26 27 28 29 30 31 32 33 34 35 36 37 38 39 40 41 42 43 44 45 46 47 48 49 50
274
ASUS42 KTBW 010017
RWRFL
FLORIDA REGIONAL WEATHER ROUNDUP
NATIONAL WEATHER SERVICE TAMPA BAY RUSKIN FL
800 PM EDT THU JUN 30 2016

NOTE: "FAIR" INDICATES FEW OR NO CLOUDS BELOW 12,000 FEET WITH NO
SIGNIFICANT WEATHER AND/OR OBSTRUCTIONS TO VISIBILITY.

FLZ001>010-012>015-112-114-115-010100-
PANHANDLE FLORIDA

CITY           SKY/WX    TMP DP  RH WIND       PRES   REMARKS
PENSACOLA      MOCLDY    82  73  74 S9        29.95R
MILTON NAS     MOCLDY    81  76  84 S9        29.96
CRESTVIEW      MOCLDY    81  72  74 S7        29.98R
DUKE FIELD     MOCLDY    81  72  73 S8        29.95R
VALPARAISO     MOCLDY    82  73  74 S7        29.95S
MARY ESTHER    CLOUDY    82  71  71 S7        29.94S
TRI COUNTY     FAIR      81  72  74 S3        29.97R
PANAMA CITY    FAIR      80  73  79 SE3       29.96R
TYNDALL AFB    CLOUDY    79  75  89 S3        29.97R
APALACHICOLA   RAIN      79  76  90 NE3       29.97R FOG

STATION/POSITION SKY/WX   TEMP    WIND        PRES    WAVE   SWELL
                          AIR SEA DIR/SP/G            HT/PER HT/PER
                          (F)     (DEG/KT/KT) (MB)    (FT/S) (FT/S)
30.1N   87.6W              81 87              1014.5R   1/ 4
29.2N   88.2W              80 85  190/  8/ 12 1013.6F
28.8N   86.0W              80 84  240/  6/  8 1014.8R   2/ 6   2/ 6
PANAMA CITY BEAC                              1014.9
TOWER C                    80     210/  4/  4 1015.6R
28.5N   84.5W              81 85  170/  2/  4 1015.4R   2/ 5   2/ 5

$$
FLZ011-016>038-118-127-128-134-139-239-010100-
NORTH FLORIDA

CITY           SKY/WX    TMP DP  RH WIND       PRES   REMARKS
MARIANNA       MOCLDY    81  74  79 S6        29.96R
TALLAHASSEE    MOCLDY    80  74  81 S5        29.98R
PERRY          CLOUDY    78  75  91 CALM      30.01R
LIVE OAK         N/A     81  79  94 CALM      30.02S
CROSS CITY       N/A     79  75  87 E5        30.00R
LAKE CITY      FAIR      79  75  89 CALM      30.02R
GAINESVILLE    CLOUDY    81  74  79 E3        30.02R
WILLISTON      FAIR      82  79  89 CALM      30.02R
MAYPORT NAS    MOCLDY    81  71  71 SE5       30.02R
JACKSONVILLE   MOCLDY    80  75  84 E3        30.02R
JAX NAS        MOCLDY    84  71  65 SE3       30.02R
JAX CECIL      PTCLDY    81  77  89 CALM      30.02R
FERNANDINA BEA FAIR      82  77  83 CALM      30.00S
ST AUGUSTINE   CLOUDY    82  74  76 S5        30.03R
PALM COAST     MOCLDY    78  78  99 S9        30.04R

STATION/POSITION SKY/WX   TEMP    WIND        PRES    WAVE   SWELL
                          AIR SEA DIR/SP/G            HT/PER HT/PER
                          (F)     (DEG/KT/KT) (MB)    (FT/S) (FT/S)
SHELL POINT                79     190/  3/  4 1013.7
KEATON BEACH               78      60/  4/  5 1015.3R
CEDAR KEY                  82      60/  2/  2 1015.5F
FERNANDINA                                    1015.9
30.7N   81.3W                 84                N/A     2/ 9
MAYPORT                                       1016.4
31.4N   80.9W              79 83  200/  2/  2 1016.2R   2/ 9   2/ 9
ST AUGUSTINE               81 85  160/  6/  8 1017.6R

$$
FLZ040-043>046-052-053-057-058-063-144-010100-
INTERIOR CENTRAL FLORIDA

CITY           SKY/WX    TMP DP  RH WIND       PRES   REMARKS
OCALA          CLOUDY    82  70  65 NE5       30.03R
THE VILLAGES     N/A     77  77 100 MISG      29.95R FOG
LEESBURG       CLOUDY    78  72  81 VRB7      30.05R THUNDER
SANFORD        CLOUDY    74  71  91 E6        30.04F THUNDER
ORLANDO EXEC   CLOUDY    77  74  90 E7        30.04F THUNDER
ORLANDO INTL   CLOUDY    76  73  91 NE10      30.04R THUNDER
KISSIMMEE      CLOUDY    82  74  76 E8        30.04R
WINTER HAVEN   PTCLDY    83  73  72 E15       30.04R
LAKELAND       PTCLDY    84  75  74 CALM      30.02R
BARTOW         FAIR      82  73  74 E14       30.03S
OKEECHOBEE     CLOUDY    75  73  94 CALM      30.04S

$$
FLZ041-047-054-059-064-141-147-010100-
EAST CENTRAL FLORIDA

CITY           SKY/WX    TMP DP  RH WIND       PRES   REMARKS
DAYTONA BEACH  TSTM      76  74  93 W7        30.05R
DELAND           N/A     75  73  94 CALM      30.06S
NEW SMYRNA BEA MOCLDY    77  73  88 W6        30.05R
TITUSVILLE     MOCLDY    79  75  89 MISG      30.05R
CAPE CANAVERAL CLOUDY    82  78  87 W5        30.03R
PATRICK AFB    DRIZZLE   79  76  89 S3        30.04R
MELBOURNE      LGT RAIN  78  74  87 SW5       30.04R
VERO BEACH     LGT RAIN  78  72  81 S6        30.05R
FT PIERCE      RAIN      75  72  90 SW10      30.04F FOG
STUART         MOCLDY    86  77  74 S5        30.05R HX  97

STATION/POSITION SKY/WX   TEMP    WIND        PRES    WAVE   SWELL
                          AIR SEA DIR/SP/G            HT/PER HT/PER
                          (F)     (DEG/KT/KT) (MB)    (FT/S) (FT/S)
28.5N   80.2W              84 84  140/ 14/ 16 1016.6R
28.9N   78.5W              83 84  140/ 10/ 10 1017.3R
TRIDENT PIER                                  1016.4
28.4N   80.5W                 85                N/A     2/ 4
27.5N   80.2W                 85                N/A     2/ 8

$$
FLZ050-056-061-142-242-148-248-149-249-151-251-155-255-
160-260-010100-
WEST CENTRAL FLORIDA

CITY           SKY/WX    TMP DP  RH WIND       PRES   REMARKS
CRYSTAL RIVER  FAIR      82  73  74 E3        30.01R
INVERNESS      FAIR      79  73  83 CALM      30.03R
BROOKSVILLE    CLOUDY    82  75  79 CALM      30.03R
ZEPHYRHILLS    FAIR      79  69  72 NW6       30.03R
CLEARWATER AIR FAIR      82  73  74 W5        30.01R
ST PETE CLEARW CLEAR     85  72  65 W8        30.01R
TAMPA INTL     MOCLDY    86  73  65 W9        30.01R
TAMPA EXEC     CLOUDY    82  75  78 CALM      30.02R
PLANT CITY     HVY RAIN  81  77  89 S9        30.04R
MACDILL AFB    PTCLDY    87  75  67 VRB5      30.01R HX  95
PETER O KNIGHT PTCLDY    88  75  66 NW6       30.01S HX  97
ST PETERSBURG  CLEAR     86  74  67 W8        30.00R
SARASOTA       CLEAR     87  73  62 W8        30.00R
VENICE         NOT AVBL

STATION/POSITION SKY/WX   TEMP    WIND        PRES    WAVE   SWELL
                          AIR SEA DIR/SP/G            HT/PER HT/PER
                          (F)     (DEG/KT/KT) (MB)    (FT/S) (FT/S)
27.3N   84.2W                 86                N/A     1/ 3
CLEARWATER BEACH                              1016.0
MIDDLE TAMPA BAY                              1016.0R
VENICE                     85 89  260/  5/  5 1016.0R

$$
FLZ066-069-070-075>078-162-262-165-265-010100-
SOUTHWEST FLORIDA AND KEYS

CITY           SKY/WX    TMP DP  RH WIND       PRES   REMARKS
PUNTA GORDA    HVY RAIN  77  73  87 NE17      30.05R FOG
FT MYERS       PTCLDY    83  74  74 E10       30.02R
SOUTHWEST INTL CLOUDY    82  73  74 E14       30.03R
NAPLES         CLOUDY    87  74  64 W3        30.02R HX  95
MARCO ISLAND   MOCLDY    88  73  62 CALM      30.04R HX  96
MARATHON       PTCLDY    86  76  71 CALM      30.03R HX  96
KEY WEST NAS   PTCLDY    87  75  67 N8        30.02R HX  96
KEY WEST INTL  PTCLDY    88  79  74 NW7       30.03R HX 103

STATION/POSITION SKY/WX   TEMP    WIND        PRES    WAVE   SWELL
                          AIR SEA DIR/SP/G            HT/PER HT/PER
                          (F)     (DEG/KT/KT) (MB)    (FT/S) (FT/S)
NAPLES                                        1016.3
26.0N   85.6W              85 86  220/  6/  8 1016.5R   1/ 3
DRY TORTUGAS               86      20/  4/  4 1016.9R
SAND KEY                   85     350/  4/  5 1017.1R
LONG KEY                   88 91  140/  3/  4 1016.5R

$$
FLZ067-068-071>074-168-172>174-010100-
SOUTHEAST FLORIDA

CITY           SKY/WX    TMP DP  RH WIND       PRES   REMARKS
W PALM BEACH   CLOUDY    81  70  69 W8        30.04R
BOCA RATON     MOCLDY    79  73  83 W6        30.04R
FT LAUDER-EXEC CLOUDY    77  70  79 W6        30.04R
FT LAUDERDALE  CLOUDY    80  72  76 W6        30.04R
POMPANO BEACH  CLOUDY    80  71  74 W8        30.04R
PEMBROKE PINES CLOUDY    78  70  76 W8        30.06R
OPA LOCKA      CLOUDY    78  70  76 NW8       30.05R
MIAMI          CLOUDY    78  73  84 W3        30.04F
WEST KENDALL   CLOUDY    76  76 100 NW6       30.03S
HOMESTEAD      CLOUDY    78  73  83 NW3       30.03S

STATION/POSITION SKY/WX   TEMP    WIND        PRES    WAVE   SWELL
                          AIR SEA DIR/SP/G            HT/PER HT/PER
                          (F)     (DEG/KT/KT) (MB)    (FT/S) (FT/S)
PORT EVERGLADES            80     280/  6/ 10 1016.9R
VIRGINIA KEY                                  1017.5
FOWEY ROCKS                80 85  330/ 11/ 12 1017.9R
SETTLEMENT POINT           84     170/  7/  9 1018.4R

$$





USA.gov is the U.S. government's official web portal to all federal, state and local government web resources and services.